Regional Weather Roundup
Issued by NWS

Home | Current Version | Previous Version | Graphics & Text | Print | Product List | Glossary On
Versions: 1 2 3 4 5 6 7 8 9 10 11 12 13 14 15 16 17 18 19 20 21 22 23 24 25 26 27
000
ASUS45 KTFX 290910
RWRMT
MONTANA REGIONAL WEATHER ROUNDUP
NATIONAL WEATHER SERVICE GREAT FALLS MT
300 AM MDT WED MAR 29 2017

NOTE: "FAIR" INDICATES FEW OR NO CLOUDS BELOW 12000 FEET WITH NO
SIGNIFICANT WEATHER AND/OR OBSTRUCTIONS TO VISIBILITY.

MTZ001>007-043-291000-
WEST OF THE DIVIDE

CITY           SKY/WX    TMP DP  RH WIND       PRES   REMARKS
KALISPELL      CLOUDY    41  32  70 S7        30.13F
MISSOULA       CLOUDY    40  34  79 W5        30.19S
BUTTE          CLOUDY    34  24  67 CALM      30.15S
MULLAN PASS    LGT SNOW  29  28  96 SW6       30.11F FOG     WCI  23
ANACONDA         N/A     37  25  60 CALM      30.15F
DEER LODGE       N/A     37  28  70 CALM      30.17F
EUREKA           N/A     45  30  57 SE10G18   30.11F
HAMILTON         N/A     45  30  57 SE6       30.16F
RONAN            N/A     40  35  82 CALM      30.19S
$$

MTZ008-052>055-291000-
SOUTHWEST MONTANA

CITY           SKY/WX    TMP DP  RH WIND       PRES   REMARKS
BOZEMAN        CLOUDY    30  24  78 SE8       30.14F WCI  22
DILLON         CLOUDY    29  20  69 SW10      30.15R WCI  20
W YELLOWSTONE  CLOUDY    28  25  86 SW7       30.19F WCI  21
ENNIS          CLOUDY    36  23  60 S12       30.18F WCI  27
THREE FORKS      N/A     33 -21   9 CALM      30.11S
$$

MTZ009-010-012-014-046-048-049-054-291000-
EAST SLOPES AND CENTRAL MONTANA

CITY           SKY/WX    TMP DP  RH WIND       PRES   REMARKS
CUT BANK       CLOUDY    36  26  67 W10       30.01S WCI  28
GREAT FALLS    CLOUDY    40  25  55 SW13      30.05S
MALMSTROM AFB  CLOUDY    41  27  57 SW16      30.05F
HELENA         CLOUDY    45  27  49 W12       30.11F
AUGUSTA        MOCLDY    40  24  52 W14       30.03F
BOWMANS CRNR   MOCLDY    38  27  65 S16       30.04F WCI  29
CHOTEAU          N/A     37  25  60 SE3       30.05S
CONRAD           N/A     40  31  70 SW5       30.04S
FAIRFIELD      MOCLDY    38  24  57 S7        30.03F
POWER            N/A     36  24  62 SW12      30.03F WCI  28
RAYNESFORD     MOCLDY    43  25  49 SW23G33   30.05F
$$

MTZ011-013-016-021-045-047-050-051-291000-
NORTH CENTRAL MONTANA

CITY           SKY/WX    TMP DP  RH WIND       PRES   REMARKS
HAVRE          CLOUDY    39  28  64 SW9       30.01F
LEWISTOWN      CLOUDY    37  24  59 SW9       30.06F WCI  30
N BAR RANCH      N/A     32  19  59 CALM      30.08S
CHINOOK          N/A     39  27  60 SW7       30.01F
DENTON           N/A     37  23  58 S8        30.03R WCI  30
FORT BENTON      N/A     41  27  56 MISG      30.05S
GEYSER           N/A     41  25  53 W10       30.03S
GRASS RANGE    MOCLDY    37  24  58 SW13      30.03S WCI  29
JUDITH GAP     MOCLDY    42  22  45 W6        30.07R
STANFORD         N/A     41  24  51 W16       30.04F
WINIFRED         N/A     38  24  57 SW9       30.04S WCI  32
$$

MTZ017>020-022>027-061-062-291000-
NORTHEAST MONTANA

CITY           SKY/WX    TMP DP  RH WIND       PRES   REMARKS
GLASGOW        PTCLDY    41  32  70 S5        30.01F
JORDAN           N/A     37  33  85 SW3       30.03F
SIDNEY         FOG       32  32 100 S5        30.08R VSB 1/4
WOLF POINT     CLOUDY    37  34  89 NE6       30.04F
MALTA          CLEAR     36  28  75 CALM      30.03S
PLENTYWOOD       N/A     34  34 100 E6        30.04F VSB 0   WCI  29
POPLAR           N/A     39  36  87 CALM      30.05F
SCOBEY           N/A     40  31  70 SE6       29.99F
$$

MTZ028>42-056>058-291000-
SOUTHCENTRAL AND SOUTHEAST MONTANA

CITY           SKY/WX    TMP DP  RH WIND       PRES   REMARKS
BAKER          MOCLDY    34  32  92 SE5       30.09S
BILLINGS       CLOUDY    41  29  62 SW8       30.08R
LIVINGSTON     CLOUDY    34  22  61 W5        30.11S
MILES CITY     CLEAR     36  33  89 SE9       30.07F WCI  29
BIG TIMBER     CLEAR     39  23  52 W18G25    30.10F WCI  30
EKALAKA          N/A     40  36  86 SE3       30.06S
FORSYTH          N/A     36  34  93 CALM      30.05F
HARLOWTON      MOCLDY    36  24  59 W13       30.07F WCI  28
LAUREL           N/A     41  24  51 SW10      30.05F
$$

REGIONAL REPORTS...DAKOTAS

CITY           SKY/WX    TMP DP  RH WIND       PRES   REMARKS
WILLISTON      FOG       33  33 100 CALM      30.07F VSB<1/4
MINOT          CLOUDY    43  39  86 SW5       30.07F
DICKINSON      MOCLDY    36  35  96 S8        30.08R WCI  30
BEACH            N/A     32  32 100 S5        30.11S FOG
TIOGA          FOG       34  34 100 CALM      30.08S VSB<1/4
WATFORD CITY     N/A     34  34 100 SW3       30.07F FOG
BISMARCK       CLOUDY    41  37  86 SE5       30.15R
GRAND FORKS    CLOUDY    33  32  96 CALM      30.18S
FARGO          CLOUDY    37  32  82 CALM      30.18R
BUFFALO SD       N/A     42  41  96 S7        30.04S
RAPID CITY     CLOUDY    41  40  96 SE3       30.10F
$$

REGIONAL REPORTS...WYOMING/IDAHO/WASHINGTON

CITY           SKY/WX    TMP DP  RH WIND       PRES   REMARKS
GILLETTE       CLEAR     29  28  96 CALM      30.10F
SHERIDAN       CLEAR     31  27  85 S3        30.10S
BUFFALO WY     CLEAR     35  25  66 W7        30.11S WCI  29
CODY           CLOUDY    42  22  44 W7        30.12S
YELLOWSTONE LA   N/A     22  19  89 CALM      30.22R
IDAHO FALLS    CLEAR     37  28  70 S13       30.22S WCI  29
SALMON         CLOUDY    34  25  69 CALM      30.18F
BOISE          CLEAR     40  32  73 SE7       30.23F
SPOKANE        CLOUDY    41  36  82 SE6       30.12F
$$

REGIONAL REPORTS...ALBERTA

CITY           SKY/WX    TMP DP  RH WIND       PRES   REMARKS
EDMONTON         N/A     30  28  93 N6        29.85R VSB 0   WCI  24
CALGARY        CLEAR     37  19  48 VRB2      29.89S
LETHBRIDGE     CLEAR     43  27  52 W24G31    29.96R
MEDICINE HAT   CLEAR     36  27  69 SW14      29.91S WCI  27
$$

REGIONAL REPORTS...SASKATCHEWAN

CITY           SKY/WX    TMP DP  RH WIND       PRES   REMARKS
SWIFT CURRENT  MOCLDY    37  28  70 SW14      29.91F WCI  29
REGINA         MOCLDY    34  34 100 SE14      29.98F FOG     WCI  24
SASKATOON      CLOUDY    37  34  87 E7        29.90F
$$




USA.gov is the U.S. government's official web portal to all federal, state and local government web resources and services.